[[{"header":{"parameterUnit":"m.s-1","parameterCategory":1,"la1":30.2992,"la2":30.254,"lo1":-89.0895,"lo2":-89.0443,"dy":0.0025,"dx":0.0025,"nx":19,"ny":19,"refTime":"2026-03-27T09:00:00:Z","depth":0,"parameterNumber":2,"parameterNumberName":"U-component_of_WINDS"},"data":[0,0,0,0.5561,0.5563,0.5653,0.5654,0.5774,0.5775,0,0,0,0,0,0,0,0,0,0,0,0.5533,0.5534,0.5561,0.5563,0.5653,0.5654,0.5774,0.5775,0,0,0,0,0,0,0,0,0,0,0,0.5533,0.5534,0.5535,0.5563,0.5653,0.5654,0.5774,0.5705,0,0,0,0,0,0,0,0,0,0,0.5616,0.559,0.5534,0.5535,0.5564,0.5653,0.5654,0.5701,0.5709,0.5734,0,0.5753,0,0.5766,0.5783,0.5784,0,0,0,0.5564,0.5583,0.5608,0.5535,0.5564,0.5653,0.5613,0.5705,0.5714,0.5744,0.5755,0.576,0.5768,0.5784,0.5785,0.5919,0.592,0,0,0.5559,0.555,0.5602,0.5613,0.5596,0.561,0.5616,0.5711,0.5723,0.5756,0.5762,0.577,0.5785,0.5786,0.5918,0.5919,0,0,0,0.5544,0.5547,0.5569,0.5608,0.5624,0.5612,0.5619,0.5719,0.5727,0.5764,0.5771,0.5786,0.5787,0.5918,0.5919,0.5938,0,0,0,0.5541,0.5538,0.5567,0.5562,0.5622,0.5672,0.5625,0.572,0.5731,0.5771,0.5786,0.5788,0.5917,0.5918,0.5936,0.5949,0,0,0,0.5528,0.5536,0.5549,0.5562,0.56,0.5671,0.5684,0.5723,0.5736,0.5784,0.5789,0.5917,0.5918,0.5934,0.5947,0.5983,0,0,0,0.5512,0.5566,0.5549,0.5612,0.5599,0.568,0.5683,0.5745,0.5788,0.5786,0.5917,0.5919,0.5934,0.5945,0.5981,0.6013,0.6024,0,0,0.5575,0.5573,0.5611,0.5598,0.568,0.5667,0.5753,0.5803,0.5817,0.5885,0.5888,0.5937,0.5946,0.5983,0.6091,0.61,0,0,0,0.5628,0.5655,0.5679,0.5718,0.5755,0.5789,0.5825,0.5844,0.5902,0.5849,0.5959,0.5965,0.5987,0.6003,0.601,0.6031,0.5925,0.5925,0.5925,0.5706,0.5719,0.5783,0.5806,0.5845,0.5881,0.5915,0.5947,0.595,0.5976,0.5997,0.606,0.6078,0.6084,0.6105,0.6013,0.6013,0.6013,0.6013,0.5801,0.5842,0.5843,0.5905,0.592,0.5974,0.6012,0.6012,0.6067,0.6045,0.6065,0.6042,0.6094,0.6113,0.6015,0.6015,0.6014,0.6014,0.6014,0.5855,0.5877,0.5896,0.5954,0.5999,0.6022,0.6073,0.6085,0.6097,0.6116,0.614,0.614,0.6143,0.6126,0.6126,0.6127,0.6127,0.6127,0.6127,0.5904,0.5925,0.5965,0.6008,0.6035,0.6073,0.611,0.6138,0.6173,0.6178,0.6178,0.618,0.6095,0.6075,0.6131,0.613,0.613,0.6129,0.6129,0.5998,0.5979,0.6041,0.6068,0.612,0.6164,0.6177,0.6233,0.6259,0.6284,0.6282,0.6216,0.6216,0.621,0.6193,0.6277,0.6277,0.6277,0.6277,0.6045,0.6045,0.6112,0.6154,0.6197,0.6215,0.6289,0.6319,0.6348,0.6365,0.6354,0.6332,0.6325,0.633,0.6321,0.6306,0.6416,0.6416,0.6416,0.6105,0.611,0.6168,0.6193,0.6235,0.6271,0.6342,0.6393,0.6422,0.6422,0.6379,0.6373,0.6338,0.6325,0.6326,0.6312,0.6284,0,0]},{"header":{"parameterUnit":"m.s-1","parameterCategory":1,"la1":30.2992,"la2":30.254,"lo1":-89.0895,"lo2":-89.0443,"dy":0.0025,"dx":0.0025,"nx":19,"ny":19,"refTime":"2026-03-27T09:00:00:Z","depth":0,"parameterNumber":3,"parameterNumberName":"V-component_of_WINDS"},"data":[0,0,0,0.0998,0.0998,0.1,0.1,0.101,0.101,0,0,0,0,0,0,0,0,0,0,0,0.0998,0.0998,0.0998,0.0998,0.1,0.1,0.101,0.101,0,0,0,0,0,0,0,0,0,0,0,0.0998,0.0998,0.0998,0.0998,0.1,0.1,0.101,0.1006,0,0,0,0,0,0,0,0,0,0,0.1002,0.1004,0.0998,0.0998,0.0998,0.1,0.1,0.1006,0.1006,0.101,0,0.1013,0,0.1011,0.1011,0.1011,0,0,0,0.0997,0.1004,0.1003,0.0999,0.0998,0.1,0.0999,0.1006,0.1006,0.1011,0.1013,0.1013,0.1011,0.1011,0.1011,0.1035,0.1035,0,0,0.0997,0.1,0.1003,0.1003,0.1001,0.0999,0.0999,0.1006,0.1009,0.1013,0.1013,0.1012,0.1011,0.1011,0.1035,0.1035,0,0,0,0.0997,0.1,0.0999,0.1003,0.1003,0.0999,0.0999,0.1009,0.1008,0.1013,0.1012,0.1011,0.1011,0.1034,0.1035,0.1046,0,0,0,0.0997,0.1,0.0999,0.1001,0.1003,0.1005,0.1002,0.1008,0.1008,0.1012,0.1011,0.1011,0.1034,0.1035,0.1045,0.1051,0,0,0,0.0998,0.1,0.1001,0.1001,0.1002,0.1005,0.1005,0.1008,0.1007,0.1011,0.1011,0.1034,0.1035,0.1044,0.105,0.1059,0,0,0,0.1,0.101,0.1001,0.1012,0.1002,0.1011,0.1005,0.1012,0.1016,0.1011,0.1034,0.1035,0.1044,0.1049,0.1058,0.1068,0.1072,0,0,0.1015,0.1012,0.1018,0.101,0.1022,0.1011,0.1025,0.1026,0.1023,0.1032,0.1032,0.1045,0.1049,0.1059,0.1091,0.1095,0,0,0,0.1024,0.1029,0.1031,0.1035,0.1036,0.1037,0.1036,0.1037,0.1043,0.1028,0.1051,0.1053,0.1058,0.1063,0.1066,0.1071,0.1037,0.1037,0.1037,0.105,0.1047,0.1058,0.1055,0.1059,0.1058,0.1061,0.1062,0.1057,0.1063,0.1066,0.1086,0.1091,0.1093,0.1099,0.107,0.107,0.107,0.107,0.1073,0.1079,0.1073,0.1082,0.1079,0.1087,0.1087,0.1084,0.1092,0.1083,0.1088,0.1079,0.1097,0.1102,0.1071,0.1071,0.107,0.107,0.107,0.109,0.1093,0.1093,0.1099,0.1105,0.1102,0.1111,0.1107,0.1105,0.1109,0.1113,0.1113,0.1114,0.1111,0.1111,0.1111,0.1111,0.1111,0.1111,0.1108,0.1108,0.1114,0.1117,0.112,0.1124,0.1124,0.1128,0.1131,0.1129,0.1129,0.1125,0.1098,0.1093,0.1113,0.1112,0.1112,0.1112,0.1112,0.1133,0.1127,0.1137,0.114,0.1144,0.1152,0.1148,0.1156,0.1158,0.1163,0.1159,0.1139,0.1137,0.1134,0.113,0.1158,0.1158,0.1158,0.1158,0.1148,0.1147,0.1157,0.1163,0.1168,0.1166,0.1181,0.1182,0.1183,0.1185,0.1181,0.1174,0.1172,0.117,0.1168,0.1163,0.1199,0.1199,0.1199,0.1164,0.1163,0.1175,0.1174,0.1178,0.1182,0.1196,0.1205,0.1205,0.1201,0.1187,0.1186,0.1174,0.1171,0.1167,0.1162,0.1154,0,0]}]]